Regional Weather Roundup
Issued by NWS Green Bay, WI

Home | Current Version | Previous Version | Graphics & Text | Print | Product List | Glossary Off
Versions: 1 2 3 4 5 6 7 8 9 10 11 12 13 14 15 16 17 18 19 20 21 22 23 24 25 26 27 28 29 30 31 32 33 34 35 36 37 38 39 40 41 42 43 44 45 46 47 48 49 50

000
ASUS43 KGRB 212311
RWRGRB

NORTH-CENTRAL AND NORTHEAST WISCONSIN REGIONAL WEATHER ROUNDUP
NATIONAL WEATHER SERVICE GREEN BAY WI
600 PM CDT THU SEP 21 2017

WIZ005-009-010>012-018-019-220000-
NORTH CENTRAL WISCONSIN

CITY           SKY/WX    TMP DP  RH WIND       PRES   REMARKS
IRONWOOD       CLEAR     78  65  63 SE6       29.93F
MANITOWISH WTR MOCLDY    75  68  77 SE7       29.96S
ARBOR VITAE    CLEAR     77  69  76 S10       29.97F
EAGLE RIVER    MOCLDY    74  64  71 S9        29.99R
LAND O LAKES   CLEAR     77  64  63 S6        30.00S
RHINELANDER    CLOUDY    73  68  84 SE7       30.00S
PHILLIPS       CLOUDY    74  69  83 S10G16    29.95R
ANTIGO         PTCLDY    72  67  84 SE6       30.01F
TOMAHAWK       CLOUDY    72  66  81 SE3       29.98F
MERRILL        CLEAR     75  68  80 SE6       29.98F
$$

WIZ013-073-220000-
NORTHEAST WISCONSIN

CITY           SKY/WX    TMP DP  RH WIND       PRES   REMARKS
IRON MOUNTAIN  CLOUDY    76  66  71 S9        29.99R
MARINETTE      CLEAR     72  67  84 E3        30.00S
OCONTO         CLEAR     74  68  80 E5        29.99R
$$

WIZ017-030-035>037-045-220000-
CENTRAL WISCONSIN

CITY           SKY/WX    TMP DP  RH WIND       PRES   REMARKS
MEDFORD        CLEAR     74  67  79 SE5       29.95F
WAUSAU         CLEAR     76  68  76 SE9       29.95F
MOSINEE        PTCLDY    75  66  73 S8        29.98F
MARSHFIELD     CLEAR     78  65  63 SE9       29.95S
WISC RAPIDS    CLEAR     80  66  62 S6        29.97S
STEVENS POINT  CLEAR     77  67  70 SE6       29.98S
WAUPACA        CLOUDY    83  65  54 SE5       29.96F
SHAWANO        CLEAR     77  70  78 CALM      29.97F
CLINTONVILLE   CLEAR     81  64  57 S5        29.97F
WAUTOMA        PTCLDY    82  67  60 SE6       29.96F
$$

WIZ038-039-048-051-220000-
FOX VALLEY

CITY           SKY/WX    TMP DP  RH WIND       PRES   REMARKS
NWS GREEN BAY  CLOUDY    81  69  67 NE3       29.98S
APPLETON       MOCLDY    82  63  51 VRB5      29.97F
OSHKOSH        CLEAR     81  68  64 SE5       29.97F
FOND DU LAC    PTCLDY    81  64  56 SE6       29.97F
$$

WIZ022-050-052-220000-
EAST CENTRAL WISCONSIN

CITY           SKY/WX    TMP DP  RH WIND       PRES   REMARKS
EPHRAIM        FAIR      72  66  83 CALM      29.99S
WASHINGTON ISL FAIR      71  67  87 CALM      29.99F
STURGEON BAY   CLEAR     72  67  84 E6        30.00S
MANITOWOC      CLOUDY    69  66  90 E6        30.00S
SHEBOYGAN      CLOUDY    75  70  84 S5        29.99S
$$

LMZ563-521-522-541>543-220000-
LAKESHORE

STATION/POSITION TIME  TEMP    WIND        PRES    VSBY  WAVE
                       AIR SEA DIR/SP/G                  HT/PER
                 (UTC) (F)     (DEG/KT/KT) (MB)    (MI)  (FT/S)
SHEBOYGAN LKSHOR 2300   70     170/  4/  5 1015.0F
KEWAUNEE LKSHORE 2248   64     120/  3/  4 1015.0F
NORTHPORT PIER   2240   69     150/  6/  6 1015.6F
N MID LAKE BUOY  2250   68 67  150/  4/  6 1016.2F         1/ 4
S GREEN BAY BUOY 2300   69 68   60/  8/ 10 1015.2
SISTER BAY LKSHO 2219   75     120/  7/  9   N/A
MENOMINEE LKSHOR 2248   70      50/  4/  5 1015.2F
$$



USA.gov is the U.S. government's official web portal to all federal, state and local government web resources and services.